Weather in Sheksna

Russia / Vologda Oblast     59°12′23″N   38°30′04″E
temp.,
°C
wind,
m/s
gust,
m/s
humid.,
%
clouds,
%
prec.,
mm/h
press.,
hPa
HPBL,
m
9 march, tue
tue900:00−20n359979 0.0 1012103
03:00−24n349974 0.0 101475
06:00−26n35993 0.0 101690
09:00−25n36968 0.0 1018235
12:00−21n359460 0.0 1019352
15:00−19n469179 0.0 1020506
18:00−21n3595100 0.0 102296
21:00−25n359768 0.0 102496
10 march, wed
wed1000:00−27nne34980 0.0 102642
03:00−28n33980 0.0 102831
06:00−29n23970 0.0 102921
09:00−25nw23930 0.0 102998
12:00−17wnw368532 0.0 1029381
15:00−13nnw478660 0.0 1028636
18:00−17nw339497 0.0 102842
21:00−20nnw239857 0.0 103033
11 march, thu
thu1100:00−22nnw23982 0.0 103020
03:00−23nw22992 0.0 103120
06:00−23wnw22970 0.0 103120
09:00−20w12940 0.0 103277
12:00−13wsw23840 0.0 1031270
15:00−10sw35870 0.0 1030376
18:00−14ssw34952 0.0 102862
21:00−17ssw48944 0.0 1028139
12 march, fri
fri1200:00−17ssw49910 0.0 1027166
03:00−17ssw498921 0.0 1026175
06:00−18ssw49910 0.0 1025176
09:00−15ssw510922 0.0 1024294
12:00−11s6119015 0.0 1023354
15:00−9s712878 0.0 1022479
18:00−9s715870 0.0 1020509
21:00−10s7168915 0.0 1020609
13 march, sat
sat1300:00−11s6158998 0.0 1019528
03:00−14s6158667 0.0 1018508
06:00−14s7158980 0.0 1016583
09:00−10s8159290 0.3 1015785
12:00−7s81389100 0.3 1014855
15:00−5s81390100 0.4 1013761
18:00−4s61293100 0.1 1012549
21:00−2s6139496 0.3 1010665